Regional Weather Roundup
Issued by NWS

Home | Current Version | Previous Version | Graphics & Text | Print | Product List | Glossary On
Versions: 1 2 3 4 5 6 7 8 9 10 11 12 13 14 15 16 17 18 19 20 21 22 23 24 25 26 27 28 29 30 31 32 33 34 35 36 37 38 39 40 41 42 43 44 45 46 47 48 49 50
000
ASUS43 KMKX 271111
RWRWI

WISCONSIN REGIONAL WEATHER ROUNDUP
NATIONAL WEATHER SERVICE MILWAUKEE/SULLIVAN WI
500 AM CST MON FEB 27 2017

NOTE: "FAIR" INDICATES FEW OR NO CLOUDS BELOW 12,000 FEET WITH NO
SIGNIFICANT WEATHER AND/OR OBSTRUCTIONS TO VISIBILITY.

WIZ001-002-006>008-014>016-023>028-271200-
NORTHWEST WISCONSIN

CITY           SKY/WX    TMP DP  RH WIND       PRES   REMARKS
SUPERIOR ARPT  CLOUDY    16   9  72 CALM      29.98S
ASHLAND        CLOUDY    16  10  77 CALM      30.00S
HAYWARD        LGT SNOW  21  13  71 CALM      29.96R
SIREN          CLOUDY    22  19  88 CALM      29.95F
CUMBERLAND     CLOUDY    25  16  68 SE6       29.93F WCI  18
RICE LAKE      CLOUDY    25  15  66 SE7       29.96F WCI  17
CHETEK         CLOUDY    23  17  76 SE6       29.96S WCI  16
LADYSMITH      CLOUDY    23  14  68 SE5       29.98S WCI  17
EAU CLAIRE     PTCLDY    23  20  88 S5        29.98S WCI  17
MENOMONIE      CLEAR     19  18  93 E6        29.98S WCI  11
NEW RICHMOND   PTCLDY    24  20  86 S6        29.95R WCI  17
OSCEOLA        CLOUDY    27  23  85 S6        29.97S WCI  20
$$

WIZ003>005-009-010-017-018-271200-
NORTH CENTRAL WISCONSIN

CITY           SKY/WX    TMP DP  RH WIND       PRES   REMARKS
MANITOWISH WTR CLOUDY     7   5  94 CALM      29.96S
ARBOR VITAE    CLOUDY    14  10  84 CALM        N/A
WOODRUFF       CLOUDY    14  10  84 CALM        N/A
RHINELANDER    CLOUDY   N/A N/A N/A CALM      29.99R
EAGLE RIVER    PTCLDY     4   0  82 CALM      29.98S
LAND O LAKES   CLOUDY    -1  -4  85 CALM      29.99S
PHILLIPS       FLURRIES  17  11  78 SE3       29.96S
TOMAHAWK       CLOUDY    17  12  82 CALM      29.99R
MEDFORD        CLOUDY    22  17  81 SE5       29.97R WCI  16
MERRILL        NOT AVBL
$$

WIZ029-030-035-036-043>047-271200-
CENTRAL WISCONSIN

CITY           SKY/WX    TMP DP  RH WIND       PRES   REMARKS
WAUSAU         CLOUDY    22  18  85 SE3       30.01R
MOSINEE        CLOUDY    23  23 100 E3        30.02S
MARSHFIELD     CLOUDY    23  19  85 S9        29.99S WCI  13
STEVENS POINT  CLOUDY    21  20  97 SE3       30.03F
WAUPACA        PTCLDY    21  19  90 CALM      30.07R
WAUTOMA        CLEAR     16  13  88 CALM      30.07R
WISC RAPIDS    CLOUDY    22  21  96 S3        30.04R
CAMP DOUGLAS   CLEAR     20  18  93 CALM      30.03S
$$

WIZ011>013-019>022-031-037>040-048>050-271200-
NORTHEAST WISCONSIN

CITY           SKY/WX    TMP DP  RH WIND       PRES   REMARKS
ANTIGO         CLOUDY    19  10  68 SE6       30.01R WCI  10
SHAWANO        CLOUDY    25  15  66 CALM      30.08R
OCONTO         PTCLDY    16  11  81 CALM      30.09R
STURGEON BAY   CLEAR     19  14  81 E3        30.10R
GREEN BAY      CLEAR     22  16  78 E5        30.07S WCI  16
MANITOWOC      CLEAR     22  19  89 CALM      30.10R
APPLETON       PTCLDY    21  18  86 S3        30.05R
CLINTONVILLE   CLOUDY    23  19  86 CALM      30.06R
OSHKOSH        CLEAR     22  18  85 S6        30.07R WCI  14
$$

WIZ032>034-041-042-053>061-271200-
SOUTHWEST WISCONSIN

CITY           SKY/WX    TMP DP  RH WIND       PRES   REMARKS
LA CROSSE      CLEAR     26  22  84 SE7       30.04R WCI  18
SPARTA         CLEAR     15  14  94 CALM      30.04S
VIROQUA        CLEAR     22  21  94 SE6       30.01S WCI  15
BOSCOBEL       PTCLDY    19  16  88 CALM      30.07S
PRAIRIE DU CHI CLEAR     23  22  94 CALM      30.06S
PLATTEVILLE    CLEAR     26  25  98 E7        30.06S WCI  18
$$

WIZ056-057-062-063-064-067-068-271200-
SOUTH CENTRAL WISCONSIN

CITY           SKY/WX    TMP DP  RH WIND       PRES   REMARKS
REEDSBURG      CLEAR     21  21  98 CALM      30.05S
BARABOO/DELLS  CLEAR     23  20  91 S3        30.05S
LONE ROCK      CLEAR     22  18  85 CALM      30.07F
MINERAL POINT  CLEAR     25  25 100 SE6       30.05R WCI  18
MADISON        CLEAR     22  19  89 CALM      30.07R
MIDDLETON      CLEAR     24  23  94 CALM      30.07S
WATERTOWN      CLEAR     21  21 100 CALM      30.09R
MONROE         PTCLDY    28  25  86 E3        30.07R
JANESVILLE     CLEAR     25  25 100 CALM      30.09R
$$

WIZ051-052-058>065-066-070>072-271200-
SOUTHEAST WISCONSIN

CITY           SKY/WX    TMP DP  RH WIND       PRES   REMARKS
MILWAUKEE      CLEAR     26  19  74 CALM      30.10R
WAUKESHA       CLEAR     23  19  86 CALM      30.10S
MILWAUKEE/TIMM CLEAR     25  21  86 CALM      30.11R
RACINE         CLEAR     26  20  77 CALM      30.12R
KENOSHA        CLEAR     24  22  91 S6        30.11R WCI  17
FOND DU LAC    CLEAR     22  17  81 S5        30.08S WCI  16
SHEBOYGAN      CLEAR     24  19  81 W3        30.09R
WEST BEND      CLEAR     23  23 100 CALM      30.08S
JUNEAU         CLEAR     25  23  92 E5        30.08S WCI  19
$$

LSZ147-162-271200-
LAKE SUPERIOR

STATION/POSITION TIME  TEMP    WIND        PRES    WAVE
                       AIR SEA DIR/SP/G            HT/PER
                 (UTC) (F)     (DEG/KT/KT) (MB)    (FT/S)
DEVILS ISLAND    1100   24     230/  7/  9 1016.8F
PORT WING        1040   17     130/  3/  5 1015.6S
SAXON HARBOR     1040   17     200/  3/  6 1015.9S
$$

LMZ867-665-643>646-271200-
LAKE MICHIGAN

STATION/POSITION TIME  TEMP    WIND        PRES    WAVE
                       AIR SEA DIR/SP/G            HT/PER
                 (UTC) (F)     (DEG/KT/KT) (MB)    (FT/S)
CHAMBERS ISLAND  1030   18        CALM     1018.3S
NORTHPORT PIER   1040   20      CALM  /  1 1019.0R
SISTER BAY       1035   18        CALM       N/A
KEWAUNEE LAKESHO 1048   22      CALM  /  3 1018.4R
SHEBOYGAN LAKESH 1100   29     270/  4/  5 1019.7R
PORT WASHINGTON  1040   29     260/  2/  3 1020.0S
MILWAUKEE LAKESH 1050   32     220/  3/  3   N/A
KENOSHA   LAKESH 1100   32      CALM  /  3 1020.0
$$

TC  - TEMPERATURE IN CELSIUS
VSB - VISIBILITY IN STATUTE MILES
WCI - WIND CHILL INDEX
HX  - HEAT INDEX




USA.gov is the U.S. government's official web portal to all federal, state and local government web resources and services.